Other Public Products
Issued by NWS Charleston, SC

Current Version | Previous Version | Text Only | Print | Product List | Glossary Off
Versions: 1 2 3 4 5 6 7 8 9 10 11 12 13 14 15 16 17 18 19 20 21 22 23 24 25 26 27 28 29 30 31 32 33 34 35 36 37 38 39 40 41 42 43 44 45 46 47 48 49 50

810
FPUS82 KCHS 171212
OPUCHS

TEST...KCHS/KSAV Gateway Observations...TEST
National Weather Service Charleston SC
700 AM EST SUN DEC 17 2017

NOTE: "fair" indicates few or no clouds below 12,000 feet with no
significant weather and/or obstructions to visibility.

SCZ050-WAZ558-NCZ071-TXZ119-213-PAZ071-DCZ001-FLZ074-172-MI076-
NYZ176-178-MAZ016-IL014-TNZ027-NJZ106-GAZ044-MD014-171300-

...Gateway Observations for Charleston International...

CITY           SKY/WX    TMP DP  RH WIND       PRES   REMARKS
Chas Airport   CLOUDY    34  34 100 CALM      30.30S
6HR MIN TEMP:  31; 6HR MAX TEMP:  37;

Seattle        CLOUDY    43  41  93 S13       30.16F FOG
6HR MIN TEMP:  42; 6HR MAX TEMP:  43; 6HR PCP:  0.09;

Charlotte      CLOUDY    31  26  82 CALM      30.26S
6HR MIN TEMP:  28; 6HR MAX TEMP:  34;

Dallas DFW     CLOUDY    46  43  89 SE7       30.02F FOG
6HR MIN TEMP:  45; 6HR MAX TEMP:  46;

Dallas Love    CLOUDY    44  43  96 SE7       30.04F
6HR MIN TEMP:  44; 6HR MAX TEMP:  45; 6HR PCP: TRACE;

Philladelphia  CLOUDY    32  25  75 E7        30.28R WCI  26
6HR MIN TEMP:  30; 6HR MAX TEMP:  37;

Wash National  CLOUDY    33  27  78 CALM      30.26R
6HR MIN TEMP:  30; 6HR MAX TEMP:  36;

Baltimore      MOCLDY    29  25  85 CALM      30.25R
6HR MIN TEMP:  25; 6HR MAX TEMP:  30;

Miami          MOCLDY    70  64  81 E5        30.21R
6HR MIN TEMP:  67; 6HR MAX TEMP:  72;

Detroit        CLOUDY    30  23  75 NE7       30.20F WCI  23
6HR MIN TEMP:  25; 6HR MAX TEMP:  30;

Newark         CLOUDY    32  22  66 N6        30.28R WCI  26
6HR MIN TEMP:  32; 6HR MAX TEMP:  34;

Laguardia      MOCLDY    34  21  59 N7        30.27R WCI  28
6HR MIN TEMP:  34; 6HR MAX TEMP:  35;

J F K          CLOUDY    32  22  66 N3        30.28R
6HR MIN TEMP:  32; 6HR MAX TEMP:  34;

Boston Logan   PTCLDY    20   6  55 W14       30.27R WCI   7
6HR MIN TEMP:  20; 6HR MAX TEMP:  24;

Ft. Lauderdale MOCLDY    74  69  85 E12       30.20R
6HR MIN TEMP:  72; 6HR MAX TEMP:  74;

Chicago O`Hare CLOUDY    35  32  88 N7        30.06S FOG     WCI  29
6HR MIN TEMP:  29; 6HR MAX TEMP:  35;

Chicago Midway CLOUDY    37  35  92 N5        30.06S WCI  33
6HR MIN TEMP:  32; 6HR MAX TEMP:  37;

Houston Bush   CLOUDY    49  48  97 NE3       30.07R
6HR MIN TEMP:  48; 6HR MAX TEMP:  49;

Houston Hobby  CLOUDY    50  49  96 N5        30.06R
6HR MIN TEMP:  48; 6HR MAX TEMP:  50;

Nashville      LGT RAIN  40  34  79 CALM      30.25R
6HR MIN TEMP:  40; 6HR MAX TEMP:  43; 6HR PCP:  0.01;

Atlanta        CLOUDY    37  30  75 E5        30.21S WCI  33
6HR MIN TEMP:  36; 6HR MAX TEMP:  41;


$$

GAZ044-118-TXZ119-213-NCZ071-DCZ001-MDZ014-506-PAZ021-071-NJZ106-
NYZ176-178-MAZ106-OHZ011-021-055-MIZ076-KYZ091-ILZ014-INZ047-
MNZ060-ONZ431-171300-

...Gateway Observations for Savannah International...

CITY           SKY/WX    TMP DP  RH WIND       PRES   REMARKS
Savannah Arpt  CLOUDY    36  34  92 CALM      30.30S
6HR MIN TEMP:  33; 6HR MAX TEMP:  37;

Atlanta        CLOUDY    37  30  75 E5        30.21S WCI  33
6HR MIN TEMP:  36; 6HR MAX TEMP:  41;

Charlotte      CLOUDY    31  26  82 CALM      30.26S
6HR MIN TEMP:  28; 6HR MAX TEMP:  34;

Dallas DFW     CLOUDY    46  43  89 SE7       30.02F FOG
6HR MIN TEMP:  45; 6HR MAX TEMP:  46;

Houston Bush   CLOUDY    49  48  97 NE3       30.07R
6HR MIN TEMP:  48; 6HR MAX TEMP:  49;

Wash National  CLOUDY    33  27  78 CALM      30.26R
6HR MIN TEMP:  30; 6HR MAX TEMP:  36;

Wash Dulles    CLOUDY    27  24  89 CALM      30.24S
6HR MIN TEMP:  23; 6HR MAX TEMP:  27;

Baltimore      MOCLDY    29  25  85 CALM      30.25R
6HR MIN TEMP:  25; 6HR MAX TEMP:  30;

Philadelphia   CLOUDY    32  25  75 E7        30.28R WCI  26
6HR MIN TEMP:  30; 6HR MAX TEMP:  37;

Newark         CLOUDY    32  22  66 N6        30.28R WCI  26
6HR MIN TEMP:  32; 6HR MAX TEMP:  34;

Laguardia      MOCLDY    34  21  59 N7        30.27R WCI  28
6HR MIN TEMP:  34; 6HR MAX TEMP:  35;

J F K          CLOUDY    32  22  66 N3        30.28R
6HR MIN TEMP:  32; 6HR MAX TEMP:  34;

Boston         PTCLDY    20   6  55 W14       30.27R WCI   7
6HR MIN TEMP:  20; 6HR MAX TEMP:  24;

Pittsburg      CLOUDY    37  27  67 W3        30.17S
6HR MIN TEMP:  36; 6HR MAX TEMP:  38;

Akron          CLOUDY    29  23  78 S5        30.17R WCI  24
6HR MIN TEMP:  23; 6HR MAX TEMP:  32;

Cleveland      CLOUDY    26  23  88 CALM      30.20S FOG
6HR MIN TEMP:  23; 6HR MAX TEMP:  29;

Cincinnati     CLOUDY    37  30  75 S5        30.16S WCI  33
6HR MIN TEMP:  36; 6HR MAX TEMP:  39;

Columbus       CLOUDY    36  29  78 S8        30.18R WCI  29
Detroit        CLOUDY    30  23  75 NE7       30.20F WCI  23
6HR MIN TEMP:  25; 6HR MAX TEMP:  30;

Chicago O`Hare CLOUDY    35  32  88 N7        30.06S FOG     WCI  29
6HR MIN TEMP:  29; 6HR MAX TEMP:  35;

Minneapolis    CLOUDY    21  20  96 E5        30.10S WCI  15
6HR MIN TEMP:  18; 6HR MAX TEMP:  24;

Indianapolis   CLOUDY    39  29  67 S5        30.12R WCI  36
6HR MIN TEMP:  36; 6HR MAX TEMP:  39;

Toronto Canada MOCLDY    10   5  79 N3        30.30R

$$




USA.gov is the U.S. government's official web portal to all federal, state and local government web resources and services.